New Orleans NAS, LA

12:16 PM CDT on July 28, 2017 (GMT -0500)
New Orleans Naval Air Station

Weather History for KNBG - May, 2014

Change the Weather History Date:

Saturday, May 17, 2014

  Actual Average Record
Temperature  
Mean Temperature 68 °F -  
Max Temperature 82 °F 83 °F 91 °F (1998)
Min Temperature 55 °F 65 °F 53 °F (2011)
Cooling Degree Days 4    
Growing Degree Days 18 (Base 50)    
Moisture  
Dew Point 55 °F    
Average Humidity 62    
Maximum Humidity 90    
Minimum Humidity 35    
Precipitation  
Precipitation 0.00 in - - ()
Sea Level Pressure  
Sea Level Pressure 30.14 in    
Wind  
Wind Speed 5 mph (SSW)    
Max Wind Speed 14 mph    
Max Gust Speed 21 mph    
Visibility 10 miles    
Events      
Averages and records for this station are not official NWS values.
T = Trace of Precipitation, MM = Missing Value Source: NWS Daily Summary

Daily Weather History Graph

Daily Weather History Graph

Search for Another Location

Airport or City:

Trip Planner

Search our weather history database for the weather conditions in past years. The results will help you decide how hot, cold, wet, or windy it might be!

Date:

Astronomy

May. 17, 2014 Rise Set
Actual Time 6:05 AM CDT 7:47 PM CDT
Civil Twilight 5:39 AM CDT 8:13 PM CDT
Nautical Twilight 5:08 AM CDT 8:45 PM CDT
Astronomical Twilight 4:35 AM CDT 9:18 PM CDT
Moon 10:50 PM CDT (5/17) 8:48 AM CDT (5/17)
Length of Visible Light 14h 34m
Length of Day
13h 41m
Waning Gibbous, 89% of the Moon is Illuminated
May 17
Waning Gibbous
May 21
Last Quarter
May 28
New
Jun 5
First Quarter
Jun 12
Full

Hourly Weather History & Observations

Time (CDT) Temp. Heat Index Dew Point Humidity Pressure Visibility Wind Dir Wind Speed Gust Speed Precip Events Conditions
12:55 AM 63.0 °F - 55.9 °F 78% 30.13 in 10.0 mi Calm Calm - N/A   Clear
1:55 AM 62.1 °F - 55.0 °F 78% 30.12 in 10.0 mi SW 3.5 mph - N/A   Clear
2:55 AM 62.1 °F - 55.9 °F 80% 30.12 in 10.0 mi SW 3.5 mph - N/A   Clear
3:55 AM 57.9 °F - 54.0 °F 87% 30.13 in 10.0 mi Calm Calm - N/A   Clear
4:55 AM 57.0 °F - 54.0 °F 89% 30.12 in 10.0 mi Calm Calm - N/A   Clear
5:55 AM 55.9 °F - 53.1 °F 90% 30.12 in 7.0 mi Calm Calm - N/A   Partly Cloudy
6:55 AM 60.1 °F - 55.9 °F 86% 30.14 in 7.0 mi Calm Calm - N/A   Partly Cloudy
7:55 AM 70.0 °F - 61.0 °F 73% 30.16 in 10.0 mi Calm Calm - N/A   Scattered Clouds
8:55 AM 73.9 °F - 59.0 °F 59% 30.17 in 10.0 mi SSW 6.9 mph - N/A   Partly Cloudy
9:55 AM 75.9 °F - 55.9 °F 50% 30.18 in 10.0 mi SSW 10.4 mph - N/A   Partly Cloudy
10:55 AM 78.1 °F - 53.1 °F 42% 30.18 in 10.0 mi SW 9.2 mph - N/A   Partly Cloudy
11:55 AM 78.1 °F - 55.0 °F 45% 30.18 in 10.0 mi SSW 11.5 mph 16.1 mph N/A   Partly Cloudy
12:55 PM 81.0 °F 81.0 °F 57.0 °F 44% 30.16 in 10.0 mi South 11.5 mph - N/A   Scattered Clouds
1:41 PM 80.6 °F 80.5 °F 55.4 °F 42% 30.15 in 10.0 mi SSW 11.5 mph - N/A   Scattered Clouds
1:55 PM 81.0 °F 80.7 °F 55.0 °F 41% 30.14 in 10.0 mi South 13.8 mph 19.6 mph N/A   Scattered Clouds
2:19 PM 80.6 °F 80.3 °F 53.6 °F 39% 30.14 in 10.0 mi SSW 12.7 mph 19.6 mph N/A   Scattered Clouds
2:55 PM 82.0 °F - 52.0 °F 35% 30.13 in 10.0 mi South 13.8 mph 20.7 mph N/A   Scattered Clouds
3:55 PM 81.0 °F - 52.0 °F 36% 30.13 in 10.0 mi SSW 11.5 mph - N/A   Partly Cloudy
4:55 PM 80.1 °F - 52.0 °F 38% 30.11 in 10.0 mi South 13.8 mph - N/A   Partly Cloudy
5:55 PM 79.0 °F - 52.0 °F 39% 30.12 in 10.0 mi SSW 10.4 mph - N/A   Clear
6:55 PM 75.9 °F - 54.0 °F 46% 30.12 in 10.0 mi SSW 10.4 mph - N/A   Scattered Clouds
7:55 PM 70.0 °F - 55.9 °F 61% 30.14 in 10.0 mi SW 4.6 mph - N/A   Scattered Clouds
8:55 PM 64.9 °F - 57.9 °F 78% 30.14 in 10.0 mi Calm Calm - N/A   Scattered Clouds
9:55 PM 64.9 °F - 57.9 °F 78% 30.16 in 10.0 mi South 5.8 mph - N/A   Mostly Cloudy
10:55 PM 63.0 °F - 57.9 °F 84% 30.16 in 10.0 mi South 3.5 mph - N/A   Mostly Cloudy
11:55 PM 62.1 °F - 57.9 °F 86% 30.15 in 10.0 mi Calm Calm - N/A   Clear